When you browse on this site, cookies collect data to enhance your experience and personalize the content and advertising you see.
Visit our Privacy Policy to learn more. By continuing to use the site, you agree to this use of cookies and data.
  • En España
  • Lista de países
  • Para 7 días
  • Temperatura del agua
  • El tiempo en el mapa
  • Informadores
  • user-avatar
    Iniciar sesión

    Tiempo cada hora Córdoba

    Hoy, 8 Diciembre, Domingo

    Tiempo Temperatura Precipitaciones Viento Presión Humedad
    00:00 +24°C° 0 mm 2 mps 721 mmHg 39%
    01:00 +23°C° 0 mm 2 mps 721 mmHg 39%
    02:00 +23°C° 0 mm 2 mps 721 mmHg 39%
    03:00 +23°C° 0 mm 2 mps 721 mmHg 39%
    04:00 +23°C° 0 mm 2 mps 721 mmHg 39%
    05:00 +23°C° 0 mm 2 mps 721 mmHg 39%
    06:00 +25°C° 0 mm 3 mps 722 mmHg 36%
    07:00 +27°C° 0 mm 3 mps 722 mmHg 32%
    08:00 +28°C° 0 mm 4 mps 722 mmHg 29%
    09:00 +30°C° 0 mm 3 mps 722 mmHg 27%
    10:00 +33°C° 0 mm 3 mps 722 mmHg 25%
    11:00 +34°C° 0 mm 3 mps 722 mmHg 23%
    12:00 +35°C° 0 mm 3 mps 722 mmHg 22%
    13:00 +36°C° 0 mm 3 mps 721 mmHg 22%
    14:00 +36°C° 0 mm 4 mps 721 mmHg 21%
    15:00 +34°C° 0.3 mm 3 mps 720 mmHg 27%
    16:00 +31°C° 0.3 mm 3 mps 720 mmHg 33%
    17:00 +29°C° 0.3 mm 3 mps 720 mmHg 39%
    18:00 +28°C° 0.2 mm 3 mps 720 mmHg 44%
    19:00 +26°C° 0.2 mm 4 mps 721 mmHg 48%
    20:00 +25°C° 0.2 mm 4 mps 721 mmHg 52%
    21:00 +23°C° 0 mm 4 mps 721 mmHg 53%
    22:00 +24°C° 0 mm 3 mps 721 mmHg 53%
    23:00 +23°C° 0 mm 2 mps 722 mmHg 54%

    Mañana, 9 Diciembre, Lunes

    Tiempo Temperatura Precipitaciones Viento Presión Humedad
    00:00 +23°C° 0 mm 2 mps 721 mmHg 52%
    01:00 +24°C° 0 mm 2 mps 721 mmHg 51%
    02:00 +24°C° 0 mm 2 mps 721 mmHg 50%
    03:00 +23°C° 0 mm 2 mps 721 mmHg 50%
    04:00 +23°C° 0 mm 2 mps 721 mmHg 50%
    05:00 +23°C° 0 mm 2 mps 721 mmHg 50%
    06:00 +26°C° 0 mm 2 mps 722 mmHg 44%
    07:00 +28°C° 0 mm 3 mps 722 mmHg 38%
    08:00 +30°C° 0 mm 3 mps 722 mmHg 33%
    09:00 +33°C° 0 mm 3 mps 722 mmHg 28%
    10:00 +35°C° 0 mm 2 mps 722 mmHg 23%
    11:00 +37°C° 0 mm 2 mps 722 mmHg 18%
    12:00 +38°C° 0 mm 3 mps 722 mmHg 18%
    13:00 +38°C° 0 mm 3 mps 721 mmHg 18%
    14:00 +38°C° 0 mm 3 mps 720 mmHg 18%
    15:00 +38°C° 0 mm 3 mps 720 mmHg 19%
    16:00 +37°C° 0 mm 3 mps 719 mmHg 19%
    17:00 +37°C° 0 mm 3 mps 719 mmHg 20%
    18:00 +35°C° 0 mm 3 mps 719 mmHg 24%
    19:00 +33°C° 0 mm 3 mps 719 mmHg 28%
    20:00 +30°C° 0 mm 3 mps 719 mmHg 32%
    21:00 +29°C° 0.1 mm 3 mps 719 mmHg 34%
    22:00 +28°C° 0.1 mm 3 mps 720 mmHg 37%
    23:00 +27°C° 0.1 mm 3 mps 720 mmHg 39%

    Pasado mañana, 10 Diciembre, Martes

    Tiempo Temperatura Precipitaciones Viento Presión Humedad
    00:00 +26°C° 0.2 mm 3 mps 720 mmHg 40%
    01:00 +26°C° 0.2 mm 2 mps 720 mmHg 41%
    02:00 +25°C° 0.2 mm 2 mps 720 mmHg 42%
    03:00 +25°C° 0 mm 3 mps 720 mmHg 44%
    04:00 +25°C° 0 mm 3 mps 720 mmHg 45%
    05:00 +25°C° 0 mm 3 mps 720 mmHg 46%
    06:00 +27°C° 0 mm 3 mps 721 mmHg 41%
    07:00 +30°C° 0 mm 4 mps 721 mmHg 36%
    08:00 +33°C° 0 mm 4 mps 722 mmHg 31%
    09:00 +35°C° 0 mm 4 mps 722 mmHg 27%
    10:00 +37°C° 0 mm 4 mps 721 mmHg 24%
    11:00 +40°C° 0 mm 4 mps 721 mmHg 20%
    12:00 +40°C° 0 mm 4 mps 721 mmHg 20%
    13:00 +40°C° 0 mm 4 mps 720 mmHg 19%
    14:00 +41°C° 0 mm 4 mps 719 mmHg 19%
    15:00 +40°C° 0 mm 4 mps 719 mmHg 19%
    16:00 +39°C° 0 mm 3 mps 718 mmHg 20%
    17:00 +39°C° 0 mm 3 mps 718 mmHg 20%
    18:00 +37°C° 0 mm 3 mps 718 mmHg 23%
    19:00 +35°C° 0 mm 3 mps 718 mmHg 26%
    20:00 +32°C° 0 mm 2 mps 718 mmHg 29%
    21:00 +31°C° 0 mm 3 mps 718 mmHg 31%
    22:00 +30°C° 0 mm 3 mps 718 mmHg 32%
    23:00 +29°C° 0 mm 3 mps 718 mmHg 34%

    11 Diciembre, Miércoles

    Tiempo Temperatura Precipitaciones Viento Presión Humedad
    00:00 +29°C° 0 mm 3 mps 718 mmHg 35%
    01:00 +29°C° 0 mm 3 mps 717 mmHg 36%
    02:00 +29°C° 0 mm 3 mps 717 mmHg 36%
    03:00 +28°C° 0 mm 3 mps 717 mmHg 37%
    04:00 +28°C° 0 mm 3 mps 716 mmHg 39%
    05:00 +28°C° 0 mm 3 mps 716 mmHg 40%
    06:00 +30°C° 0 mm 3 mps 716 mmHg 37%
    07:00 +33°C° 0 mm 4 mps 716 mmHg 34%
    08:00 +36°C° 0 mm 5 mps 717 mmHg 31%
    09:00 +39°C° 0 mm 5 mps 716 mmHg 28%
    10:00 +40°C° 0 mm 5 mps 716 mmHg 24%
    11:00 +42°C° 0 mm 5 mps 716 mmHg 20%
    12:00 +40°C° 0 mm 5 mps 715 mmHg 25%
    13:00 +37°C° 0 mm 5 mps 715 mmHg 29%
    14:00 +35°C° 0 mm 5 mps 714 mmHg 33%
    15:00 +35°C° 0 mm 6 mps 714 mmHg 36%
    16:00 +34°C° 0 mm 7 mps 714 mmHg 38%
    17:00 +33°C° 0 mm 8 mps 714 mmHg 40%
    18:00 +32°C° 0 mm 7 mps 715 mmHg 43%
    19:00 +29°C° 0 mm 5 mps 715 mmHg 46%
    20:00 +27°C° 0 mm 4 mps 716 mmHg 49%
    21:00 +26°C° 0.1 mm 3 mps 717 mmHg 50%
    22:00 +26°C° 0.1 mm 3 mps 717 mmHg 51%
    23:00 +25°C° 0.1 mm 2 mps 718 mmHg 53%

    12 Diciembre, Jueves

    Tiempo Temperatura Precipitaciones Viento Presión Humedad
    00:00 +24°C° 0 mm 3 mps 718 mmHg 45%
    01:00 +23°C° 0 mm 4 mps 719 mmHg 36%
    02:00 +23°C° 0 mm 5 mps 719 mmHg 28%
    03:00 +22°C° 0 mm 6 mps 719 mmHg 25%
    04:00 +22°C° 0 mm 6 mps 720 mmHg 22%
    05:00 +21°C° 0 mm 6 mps 720 mmHg 19%
    06:00 +22°C° 0 mm 6 mps 721 mmHg 18%
    07:00 +23°C° 0 mm 7 mps 721 mmHg 17%
    08:00 +23°C° 0 mm 7 mps 722 mmHg 16%
    09:00 +26°C° 0 mm 7 mps 722 mmHg 14%
    10:00 +27°C° 0 mm 7 mps 723 mmHg 12%
    11:00 +29°C° 0 mm 6 mps 723 mmHg 10%
    12:00 +30°C° 0 mm 6 mps 722 mmHg 11%
    13:00 +30°C° 0 mm 6 mps 722 mmHg 11%
    14:00 +32°C° 0 mm 5 mps 722 mmHg 12%
    15:00 +32°C° 0 mm 5 mps 721 mmHg 12%
    16:00 +32°C° 0 mm 4 mps 721 mmHg 13%
    17:00 +32°C° 0 mm 4 mps 720 mmHg 13%
    18:00 +28°C° 0 mm 3 mps 721 mmHg 15%
    19:00 +26°C° 0 mm 2 mps 721 mmHg 17%
    20:00 +24°C° 0 mm 1 mps 721 mmHg 19%
    21:00 +23°C° 0 mm 1 mps 721 mmHg 20%
    22:00 +22°C° 0 mm 1 mps 722 mmHg 21%
    23:00 +21°C° 0 mm 1 mps 723 mmHg 21%

    13 Diciembre, Viernes

    Tiempo Temperatura Precipitaciones Viento Presión Humedad
    00:00 +21°C° 0 mm 1 mps 722 mmHg 22%
    01:00 +20°C° 0 mm 1 mps 722 mmHg 23%
    02:00 +19°C° 0 mm 1 mps 722 mmHg 23%
    03:00 +19°C° 0 mm 1 mps 722 mmHg 24%
    04:00 +16°C° 0 mm 0 mps 722 mmHg 25%
    05:00 +16°C° 0 mm 0 mps 723 mmHg 26%
    06:00 +20°C° 0 mm 1 mps 723 mmHg 23%
    07:00 +22°C° 0 mm 1 mps 724 mmHg 21%
    08:00 +25°C° 0 mm 2 mps 724 mmHg 19%
    09:00 +26°C° 0 mm 3 mps 724 mmHg 18%
    10:00 +28°C° 0 mm 4 mps 724 mmHg 17%
    11:00 +30°C° 0 mm 5 mps 724 mmHg 16%
    12:00 +32°C° 0 mm 5 mps 723 mmHg 15%
    13:00 +33°C° 0 mm 5 mps 723 mmHg 15%
    14:00 +34°C° 0 mm 6 mps 722 mmHg 14%
    15:00 +34°C° 0 mm 5 mps 721 mmHg 15%
    16:00 +34°C° 0 mm 5 mps 721 mmHg 16%
    17:00 +34°C° 0 mm 5 mps 720 mmHg 16%
    18:00 +32°C° 0 mm 4 mps 720 mmHg 19%
    19:00 +29°C° 0 mm 3 mps 721 mmHg 21%
    20:00 +26°C° 0 mm 3 mps 721 mmHg 23%
    21:00 +26°C° 0 mm 2 mps 721 mmHg 25%
    22:00 +25°C° 0 mm 2 mps 721 mmHg 26%
    23:00 +24°C° 0 mm 2 mps 722 mmHg 27%
    Mostrar más